Погода Ганюшкино

Погода Ганюшкино : погода сейчас, прогноз погоды и архив. Всё, что Вы хотите узнать о погоде Ганюшкино!

Хотите узнать прогноз погоды Ганюшкино? Тогда Вам сюда: Погода Ганюшкино

Поиск расширенной информации на нашем сайте:

Другие новости

Новости СМИ2

Главная страница сайта

Новости сайта

03.07.2017

Напоминаем, что на нашем специализированном сайте Метеоцентр.Азия вы можете получить высокодетализированные автоматические прогнозы погоды по пунктам России, СНГ и мира в авиационном формате (включающие направление и скорость ветра, видимость, явления погоды, количество и форму облачности, нижнюю и верхнюю границу облачности).


Погода Ганюшкино - сегодня

Время (UTC), дата Ветер
(°,м/с) 
Видим.   Явления Облачность Т
(°С)
Тd
(°С)
f(%) Тe
(°С)
Pmin
(гПа)
dP
(гПа)
Po
(мм)
O2
(г/м3)
Тmin Tmax R s Состояние
почвы
12 09.12.17 290 (З) 10 км    10/0 средняя 
[Ac und]
-2.5 -6.9 72 -4  1026.4  0.6  772  315           
15 09.12.17 310 (СЗ) 10 км    ясно 
-5.5 -9.3 75 -5  1027.1  -0.7  773  319    -1.8       
18 09.12.17 110 (В) 10 км    ясно 
-6.3 -9.9 76 -8  1027.5  0.4  773  320    -1.8       
21 09.12.17 130 (ЮВ) 10 км    ясно 
-6.1 -9.2 79 -8  1027.5  773  320           
00 10.12.17 120 (ЮВ) 10 км    ясно 
-5.6 -8.2 82 -8  1027.4  -0.1  773  319           
03 10.12.17 110 (В) 10 км    8/0 средняя 
[Ac trans]
-4.2 -6.5 84 -6  1027.1  -0.3  773  317  -6      равномерный
сухой снег
100% 
06 10.12.17 130 (ЮВ) 10 км    8/0 средняя 
[Ac trans]
-1.1 -3.7 82 -4  1027.3  0.2  773  313  -6.5         
09 10.12.17 100 (В) 10 км    10/0 средняя 
[As op]
+1.3 -1.9 79 1027  -0.4  773  310           
12 10.12.17 070 (В) 10 км    8/0 верхняя 
[Cs]
+0.9 -3 75 -1  1026.4  -0.6  772  310           
15 10.12.17 100 (В) 10 км    3/0 верхняя 
[Ci fib]
-0.9 -4.4 77 -4  1025.9  -0.4  772  313    +2.1       
18 10.12.17 090 (В) 10 км    ясно 
-1.4 -4.7 78 -4  1025.7  -0.2  772  313    +2.1       
21 10.12.17 090 (В) 10 км    3/0 средняя 
[Ac trans]
-1.8 -4.8 80 -5  1024.5  -1.1  771  313           
00 11.12.17 080 (В) 10 км    10/0 средняя 
[Ac und]
+0.1 -2.7 81 -3  1024  -0.6  770  311           
03 11.12.17 080 (В) 10 км    10/10 600 м 
[Sc]
+0.8 -2.5 79 -3  1023.8  -0.3  770  310  -1.9      равномерный
сухой снег
100% 
06 11.12.17 100 (В) 10 км    10/10 600 м 
[Sc]
+1.1 -1.8 81 -2  1025.2  1.4  771  310  -1.9         
09 11.12.17 100 (В) 10 км    10/0 средняя 
[Ac und]
+1.7 -2.1 76 1026.2  772  309           
12 11.12.17 100 (В) 10 км  в посл. час дождь  10/0 средняя 
[As op]
+1.4 -0.5 87 -1  1026.3  0.1  772  310           
15 11.12.17 110 (В) 10 км  в посл. час дождь  10/10 600 м 
[Sc]
+0.8 -0.9 88 -1  1027.4  1.1  773  311    +1.8     
18 11.12.17 110 (В) 10 км  {дождь}  10/10 600 м 
[Sc]
+1.3 -1.3 83 1028.1  0.7  773  310        замёрзшая 
21 11.12.17 150 (ЮВ) 10 км    10/10 600 м 
[Sc]
+1 -1.9 81 1028  -0.1  773  311           
00 12.12.17 070 (В) 10 км    10/0 средняя 
[Ac und]
+0.6 -1.4 86 1028  773  311           
03 12.12.17 230 (ЮЗ) 0500 м  туман  ?/?  
+0.8 -0.6 90 1028.4  0.4  774  311        мокрый или
старый снег
50-90% 
06 12.12.17 260 (З) 0200 м  туман  ?/?  
+1.6 -0 89 +2  1029.2  0.8  774  310  +0.3         
09 12.12.17 260 (З) 0500 м  туман  ?/?  
+2.3 -0.2 84 +3  1028.5  -0.7  774  309           
12 12.12.17 090 (В) 4000 м  дымка{туман}  10/0 средняя 
[As op]
+3.4 +1.1 85 +3  1028.8  0.3  774  308           
Время (UTC), дата Ветер
(°,м/с) 
Видим.   Явления Облачность Т
(°С)
Тd
(°С)
f(%) Тe
(°С)
Pmin
(гПа)
dP
(гПа)
Po
(мм)
O2
(г/м3)
Тmin Tmax R s Состояние
почвы

Для получения пояснительной информации подведите курсор к названию столбца.

ПОГОДА Ганюшкино - архив

Всё, что Вы хотите узнать о погоде Ганюшкино - удобно и подробно!

Выберите нужную дату (начиная с 1 января 2015* года) и нажмите кнопку "Найти".
Будут отображены архивные сводки погоды по пункту Ганюшкино, начиная с указанной даты.


Отображать данные в формате CSV (для использования в таблицах Excel)


Внимание! Наш архив погоды предназначен исключительно для личного некоммерческого использования в познавательных целях. Если Вам необходимы официальные справки о состоянии погоды (для производственных, юридических, коммерческих и т.п. целей), обращайтесь в органы Росгидромета.

*Примечание: данная дата относится к архиву по метеостанциям СССР (Россия, СНГ, Балтия).
Архив по метеостанциям Зарубежной Европы и Азии (кроме Китая) хранится 10 дней, по другим регионам земного шара (Китай, Африка, Америка, Австралия, Океания) - 1 день.

Ганюшкино - район местоположения метеостанции


Название, широта, долгота, высота метеостанции:
Ганюшкино 46.6°ш. 49.3°д. -23 м над ур. моря [Казахстан]

Дополнительная информация

В oтличие oт бoльшинства пoгoдных сайтoв мы публикуем пoдрoбную метеoинфoрмацию в детальнoм прoфессиoнальнoм фoрмате.

Характеристики температуры и влажнoсти вoздуха измеряются на высoте 2 м в тени вдали oт зданий и деревьев.
Скoрoсть ветра измеряется на высoте 10 м (на урoвне рoста челoвека скoрoсть ветра ниже в 1.5-2 раза). Если метеoстанция нахoдится в гoрoде или в лесу, тo скoрoсть ветра занижена на 2-4 м/с пo сравнению с oткрытым местoм. Скoрoсть ветра над акватoриями крупных рек и oзёр, а также на вершинах хoлмoв на 2-5 м/с выше, чем в oбычных услoвиях.
Атмoсфернoе давление в разных тoчках местнoсти мoжет значительнo oтличаться oт давления на метеoстанции, в зависимoсти oт услoвий рельефа (при пoдъёме на 10 м давление пoнижается примернo на 1 мм рт.ст.).